Climatologie pour Saint-Brevin les Pins
Jour • Résumé pour juin 19, 2017 Système :  Métrique    Anglais   Mixte
« - 1 jour
+ 1 jour »
Jour Semaine Mois Année Personnalisé
  Maximum : Minimum : Moyenne :
Température sous abri : -17.8 °C -7.4 °C -4.1 °C
Point de rosée : -17.8 °C -9.2 °C -7.8 °C
Humidité : Humidity % 46 % 67 %
Vitesse du vent : 0 km/h 0 km/h 7.6 km/h
Rafale : 0 km/h - -
Direction :- - SSE
Pression : 0 hPa 34313.7 hPa -
Précipitations : 0 mm    
Historical Graphs
 
 
Tableau de données pour juin 19, 2017
Heure Tempé Pt rosée Pression Vent Vitesse Rafale Humidité Taux pluie (/hr) Soleil
-17.8 °C -17.8 °C 0 hPa Calm     Humidity % 0 mm SolarRadiationWatts/m^2 W/m2 Conditions
00:00 -4.6 °C -8.6 °C 34418.7 hPa ESE 2.6 km/h 18.2 km/h 64 % 0 mm 0 W/m2
00:05 -4.7 °C -8.6 °C 34418.7 hPa Calm   18.2 km/h 65 % 0 mm 0 W/m2
00:10 -4.8 °C -8.6 °C 34418.7 hPa ENE 5.1 km/h 18.2 km/h 65 % 0 mm 0 W/m2
00:15 -4.8 °C -8.8 °C 34418.7 hPa ENE 2.6 km/h 18.2 km/h 64 % 0 mm 0 W/m2
00:20 -4.8 °C -8.8 °C 34418.7 hPa ESE 18.2 km/h 18.2 km/h 64 % 0 mm 0 W/m2
00:25 -4.8 °C -8.8 °C 34418.7 hPa East 10.3 km/h 20.8 km/h 64 % 0 mm 0 W/m2
00:30 -4.8 °C -8.8 °C 34418.7 hPa East 5.1 km/h 20.8 km/h 64 % 0 mm 0 W/m2
00:35 -4.9 °C -8.8 °C 34418.7 hPa East 5.1 km/h 18.2 km/h 65 % 0 mm 0 W/m2
00:40 -4.9 °C -8.8 °C 34418.7 hPa East 7.7 km/h 18.2 km/h 65 % 0 mm 0 W/m2
00:45 -4.9 °C -8.8 °C 34418.7 hPa East 5.1 km/h 18.2 km/h 65 % 0 mm 0 W/m2
00:50 -5.1 °C -8.9 °C 34418.7 hPa ENE 7.7 km/h 18.2 km/h 65 % 0 mm 0 W/m2
00:55 -5.1 °C -8.9 °C 34418.7 hPa East 7.7 km/h 15.6 km/h 65 % 0 mm 0 W/m2
01:00 -5.1 °C -8.8 °C 34418.7 hPa East 7.7 km/h 12.9 km/h 66 % 0 mm 0 W/m2
01:10 -5.3 °C -8.8 °C 34405.1 hPa ENE 2.6 km/h 15.6 km/h 67 % 0 mm 0 W/m2
01:15 -5.3 °C -8.9 °C 34405.1 hPa East 5.1 km/h 15.6 km/h 67 % 0 mm 0 W/m2
01:20 -5.4 °C -8.9 °C 34418.7 hPa ENE 5.1 km/h 12.9 km/h 67 % 0 mm 0 W/m2
01:25 -5.4 °C -8.9 °C 34405.1 hPa East 5.1 km/h 15.6 km/h 67 % 0 mm 0 W/m2
01:30 -5.3 °C -8.9 °C 34418.7 hPa East 7.7 km/h 15.6 km/h 67 % 0 mm 0 W/m2
01:35 -5.4 °C -8.8 °C 34405.1 hPa East 2.6 km/h 18.2 km/h 68 % 0 mm 0 W/m2
01:40 -5.4 °C -8.9 °C 34405.1 hPa ENE 5.1 km/h 18.2 km/h 68 % 0 mm 0 W/m2
01:45 -5.4 °C -8.8 °C 34405.1 hPa East 2.6 km/h 15.6 km/h 68 % 0 mm 0 W/m2
01:50 -5.4 °C -8.9 °C 34405.1 hPa East 5.1 km/h 15.6 km/h 68 % 0 mm 0 W/m2
01:55 -5.4 °C -8.9 °C 34405.1 hPa East 2.6 km/h 15.6 km/h 68 % 0 mm 0 W/m2
02:00 -5.5 °C -8.9 °C 34405.1 hPa East 15.6 km/h 15.6 km/h 68 % 0 mm 0 W/m2
02:05 -5.6 °C -8.9 °C 34405.1 hPa East 7.7 km/h 18.2 km/h 69 % 0 mm 0 W/m2
02:10 -5.6 °C -8.8 °C 34405.1 hPa East 2.6 km/h 18.2 km/h 70 % 0 mm 0 W/m2
02:15 -5.7 °C -8.9 °C 34405.1 hPa East 5.1 km/h 12.9 km/h 70 % 0 mm 0 W/m2
02:20 -5.7 °C -8.9 °C 34405.1 hPa Calm   15.6 km/h 70 % 0 mm 0 W/m2
02:25 -5.8 °C -8.8 °C 34405.1 hPa Calm   15.6 km/h 71 % 0 mm 0 W/m2
02:30 -5.8 °C -8.8 °C 34395 hPa Calm   15.6 km/h 71 % 0 mm 0 W/m2
02:35 -5.9 °C -8.8 °C 34405.1 hPa East 5.1 km/h 15.6 km/h 72 % 0 mm 0 W/m2
02:40 -5.9 °C -8.9 °C 34405.1 hPa ENE 7.7 km/h 12.9 km/h 72 % 0 mm 0 W/m2
02:45 -6 °C -8.9 °C 34405.1 hPa East 15.6 km/h 15.6 km/h 72 % 0 mm 0 W/m2
02:50 -6.1 °C -8.9 °C 34405.1 hPa East 2.6 km/h 15.6 km/h 73 % 0 mm 0 W/m2
02:55 -6.1 °C -8.9 °C 34405.1 hPa ENE 5.1 km/h 15.6 km/h 73 % 0 mm 0 W/m2
03:00 -6.2 °C -8.9 °C 34405.1 hPa East 2.6 km/h 15.6 km/h 74 % 0 mm 0 W/m2
03:05 -6.2 °C -8.9 °C 34405.1 hPa East 5.1 km/h 12.9 km/h 74 % 0 mm 0 W/m2
03:10 -6.3 °C -8.8 °C 34395 hPa ENE 7.7 km/h 7.7 km/h 75 % 0 mm 0 W/m2
03:15 -6.4 °C -8.9 °C 34395 hPa ENE 5.1 km/h 10.3 km/h 75 % 0 mm 0 W/m2
03:20 -6.4 °C -8.9 °C 34395 hPa Calm   10.3 km/h 75 % 0 mm 0 W/m2
03:25 -6.4 °C -8.9 °C 34395 hPa East 5.1 km/h 12.9 km/h 76 % 0 mm 0 W/m2
03:30 -6.5 °C -8.9 °C 34395 hPa ENE 5.1 km/h 12.9 km/h 76 % 0 mm 0 W/m2
03:35 -6.6 °C -8.9 °C 34395 hPa East 7.7 km/h 12.9 km/h 77 % 0 mm 0 W/m2
03:40 -6.6 °C -8.9 °C 34395 hPa ENE 5.1 km/h 12.9 km/h 77 % 0 mm 0 W/m2
03:45 -6.8 °C -9 °C 34395 hPa ENE 7.7 km/h 10.3 km/h 78 % 0 mm 0 W/m2
03:50 -6.9 °C -8.9 °C 34395 hPa ENE 12.9 km/h 12.9 km/h 79 % 0 mm 0 W/m2
03:55 -6.8 °C -8.9 °C 34395 hPa ENE 7.7 km/h 18.2 km/h 78 % 0 mm 0 W/m2
04:00 -6.7 °C -9.1 °C 34395 hPa ENE 5.1 km/h 18.2 km/h 77 % 0 mm 0 W/m2
04:05 -6.7 °C -9 °C 34395 hPa East 7.7 km/h 18.2 km/h 77 % 0 mm 0 W/m2
04:10 -6.7 °C -9.1 °C 34395 hPa ENE 10.3 km/h 18.2 km/h 77 % 0 mm 0 W/m2
04:15 -6.7 °C -9.1 °C 34384.8 hPa East 2.6 km/h 18.2 km/h 77 % 0 mm 0 W/m2
04:25 -6.8 °C -9.1 °C 34395 hPa ENE 7.7 km/h 12.9 km/h 77 % 0 mm 0 W/m2
04:30 -6.8 °C -9.1 °C 34384.8 hPa ENE 7.7 km/h 15.6 km/h 77 % 0 mm 0 W/m2
04:35 -6.8 °C -9 °C 34384.8 hPa East 7.7 km/h 15.6 km/h 78 % 0 mm 0 W/m2
04:40 -6.8 °C -9 °C 34384.8 hPa East 5.1 km/h 12.9 km/h 78 % 0 mm 0 W/m2
04:45 -6.8 °C -9.1 °C 34384.8 hPa East 5.1 km/h 12.9 km/h 78 % 0 mm 0 W/m2
04:50 -6.9 °C -9.1 °C 34384.8 hPa ENE 5.1 km/h 12.9 km/h 78 % 0 mm 0 W/m2
04:55 -6.9 °C -9.1 °C 34384.8 hPa East 7.7 km/h 12.9 km/h 78 % 0 mm 0 W/m2
05:00 -7.1 °C -9.2 °C 34384.8 hPa ENE 5.1 km/h 12.9 km/h 79 % 0 mm 0 W/m2
05:05 -7.3 °C -9.2 °C 34384.8 hPa ENE 10.3 km/h 12.9 km/h 80 % 0 mm 0 W/m2
05:10 -7.3 °C -9.2 °C 34384.8 hPa ENE 5.1 km/h 12.9 km/h 81 % 0 mm 0 W/m2
05:15 -7.4 °C -9.2 °C 34371.3 hPa East 7.7 km/h 15.6 km/h 82 % 0 mm 0 W/m2
05:20 -7.3 °C -9.1 °C 34371.3 hPa East 5.1 km/h 18.2 km/h 82 % 0 mm 0 W/m2
05:25 -7.2 °C -9.1 °C 34371.3 hPa East 10.3 km/h 18.2 km/h 81 % 0 mm 0 W/m2
05:30 -7.1 °C -9.1 °C 34371.3 hPa ENE 7.7 km/h 20.8 km/h 80 % 0 mm 0 W/m2
05:35 -7.1 °C -9.1 °C 34371.3 hPa ENE 10.3 km/h 20.8 km/h 80 % 0 mm 0 W/m2
05:40 -7.1 °C -9.1 °C 34371.3 hPa ENE 7.7 km/h 18.2 km/h 80 % 0 mm 0 W/m2
05:45 -7.1 °C -9.1 °C 34371.3 hPa ENE 7.7 km/h 20.8 km/h 80 % 0 mm 0 W/m2
05:50 -7.2 °C -9.1 °C 34371.3 hPa ENE 7.7 km/h 23.3 km/h 80 % 0 mm 0 W/m2
05:55 -7.2 °C -9.2 °C 34361.1 hPa Calm   23.3 km/h 80 % 0 mm 0 W/m2
06:00 -7.3 °C -9.2 °C 34361.1 hPa NE 10.3 km/h 18.2 km/h 80 % 0 mm 0 W/m2
06:05 -7.3 °C -9.2 °C 34361.1 hPa East 12.9 km/h 20.8 km/h 81 % 0 mm 5 W/m2
06:10 -7.3 °C -9.2 °C 34361.1 hPa East 5.1 km/h 20.8 km/h 81 % 0 mm 5 W/m2
06:15 -7.3 °C -9.2 °C 34361.1 hPa NE 2.6 km/h 20.8 km/h 81 % 0 mm 5 W/m2
06:20 -7.3 °C -9.1 °C 34361.1 hPa ENE 7.7 km/h 20.8 km/h 82 % 0 mm 7 W/m2
06:25 -7.3 °C -9.1 °C 34361.1 hPa East 7.7 km/h 18.2 km/h 82 % 0 mm 11 W/m2
06:30 -7.4 °C -9.1 °C 34361.1 hPa East 12.9 km/h 18.2 km/h 82 % 0 mm 14 W/m2
06:35 -7.3 °C -9.1 °C 34361.1 hPa ENE 5.1 km/h 18.2 km/h 82 % 0 mm 18 W/m2
06:40 -7.4 °C -9.1 °C 34361.1 hPa ENE 2.6 km/h 20.8 km/h 82 % 0 mm 21 W/m2
06:45 -7.3 °C -9.1 °C 34361.1 hPa ENE 10.3 km/h 20.8 km/h 82 % 0 mm 25 W/m2
06:50 -7.3 °C -9.1 °C 34361.1 hPa East 10.3 km/h 20.8 km/h 82 % 0 mm 26 W/m2
06:55 -7.2 °C -9 °C 34361.1 hPa East 7.7 km/h 20.8 km/h 81 % 0 mm 28 W/m2
07:00 -7.1 °C -8.9 °C 34361.1 hPa East 10.3 km/h 20.8 km/h 81 % 0 mm 32 W/m2
07:05 -7.1 °C -9 °C 34361.1 hPa East 7.7 km/h 18.2 km/h 80 % 0 mm 35 W/m2
07:10 -7 °C -8.9 °C 34361.1 hPa ENE 12.9 km/h 18.2 km/h 80 % 0 mm 37 W/m2
07:15 -6.9 °C -8.9 °C 34361.1 hPa East 10.3 km/h 18.2 km/h 80 % 0 mm 40 W/m2
07:20 -6.9 °C -8.9 °C 34361.1 hPa ENE 7.7 km/h 18.2 km/h 80 % 0 mm 44 W/m2
07:25 -6.8 °C -8.8 °C 34361.1 hPa ENE 7.7 km/h 18.2 km/h 80 % 0 mm 46 W/m2
07:30 -6.8 °C -8.8 °C 34361.1 hPa ENE 7.7 km/h 18.2 km/h 80 % 0 mm 47 W/m2
07:35 -6.7 °C -8.7 °C 34361.1 hPa East 10.3 km/h 18.2 km/h 80 % 0 mm 49 W/m2
07:40 -6.7 °C -8.7 °C 34361.1 hPa East 2.6 km/h 18.2 km/h 80 % 0 mm 51 W/m2
07:45 -6.6 °C -8.7 °C 34361.1 hPa East 2.6 km/h 15.6 km/h 79 % 0 mm 51 W/m2
07:50 -6.6 °C -8.7 °C 34361.1 hPa ENE 10.3 km/h 18.2 km/h 79 % 0 mm 123 W/m2
07:55 -6.5 °C -8.6 °C 34371.3 hPa NE 10.3 km/h 18.2 km/h 79 % 0 mm 155 W/m2
08:00 -6.4 °C -8.6 °C 34361.1 hPa East 2.6 km/h 18.2 km/h 78 % 0 mm 176 W/m2
08:05 -6.2 °C -8.4 °C 34371.3 hPa East 2.6 km/h 18.2 km/h 78 % 0 mm 192 W/m2
08:10 -6.2 °C -8.4 °C 34371.3 hPa ENE 7.7 km/h 18.2 km/h 77 % 0 mm 197 W/m2
08:15 -6.1 °C -8.4 °C 34371.3 hPa East 15.6 km/h 20.8 km/h 77 % 0 mm 211 W/m2
08:20 -5.9 °C -8.4 °C 34371.3 hPa ENE 10.3 km/h 20.8 km/h 76 % 0 mm 225 W/m2
08:25 -5.7 °C -8.3 °C 34371.3 hPa East 5.1 km/h 20.8 km/h 75 % 0 mm 258 W/m2
08:30 -5.6 °C -8.2 °C 34371.3 hPa East 5.1 km/h 20.8 km/h 75 % 0 mm 279 W/m2
08:35 -5.5 °C -8.1 °C 34371.3 hPa ESE 5.1 km/h 12.9 km/h 75 % 0 mm 297 W/m2
08:40 -5.4 °C -8.2 °C 34371.3 hPa East 10.3 km/h 28.5 km/h 73 % 0 mm 315 W/m2
08:45 -5.2 °C -8 °C 34371.3 hPa ENE 10.3 km/h 28.5 km/h 73 % 0 mm 325 W/m2
08:50 -5.1 °C -8.1 °C 34371.3 hPa ESE 12.9 km/h 23.3 km/h 72 % 0 mm 341 W/m2
08:55 -4.9 °C -8.1 °C 34371.3 hPa East 15.6 km/h 23.3 km/h 70 % 0 mm 357 W/m2
09:00 -4.8 °C -8 °C 34371.3 hPa East 5.1 km/h 28.5 km/h 70 % 0 mm 373 W/m2
09:05 -4.7 °C -8.1 °C 34371.3 hPa ENE 2.6 km/h 28.5 km/h 69 % 0 mm 388 W/m2
09:10 -4.5 °C -7.8 °C 34371.3 hPa SE 12.9 km/h 23.3 km/h 69 % 0 mm 403 W/m2
09:15 -4.4 °C -7.7 °C 34371.3 hPa East 15.6 km/h 23.3 km/h 69 % 0 mm 417 W/m2
09:20 -4.3 °C -7.9 °C 34371.3 hPa ESE 12.9 km/h 20.8 km/h 67 % 0 mm 431 W/m2
09:25 -4.2 °C -7.8 °C 34371.3 hPa NNE 2.6 km/h 23.3 km/h 67 % 0 mm 443 W/m2
09:30 -4.1 °C -7.7 °C 34361.1 hPa ESE 10.3 km/h 23.3 km/h 67 % 0 mm 455 W/m2
09:35 -4 °C -7.9 °C 34371.3 hPa ENE 7.7 km/h 28.5 km/h 65 % 0 mm 469 W/m2
09:40 -3.9 °C -7.7 °C 34371.3 hPa ENE 10.3 km/h 28.5 km/h 66 % 0 mm 483 W/m2
09:45 -3.7 °C -7.6 °C 34361.1 hPa East 7.7 km/h 23.3 km/h 65 % 0 mm 497 W/m2
09:50 -3.7 °C -7.8 °C 34361.1 hPa SE 12.9 km/h 23.3 km/h 63 % 0 mm 512 W/m2
09:55 -3.6 °C -7.8 °C 34361.1 hPa SSE 12.9 km/h 23.3 km/h 63 % 0 mm 526 W/m2
10:00 -3.4 °C -7.6 °C 34361.1 hPa Calm   23.3 km/h 63 % 0 mm 534 W/m2
10:05 -3.3 °C -7.5 °C 34361.1 hPa East 5.1 km/h 23.3 km/h 63 % 0 mm 547 W/m2
10:10 -3.2 °C -7.6 °C 34361.1 hPa East 12.9 km/h 23.3 km/h 62 % 0 mm 561 W/m2
10:15 -3.2 °C -7.6 °C 34361.1 hPa East 12.9 km/h 23.3 km/h 62 % 0 mm 573 W/m2
10:20 -3.1 °C -7.3 °C 34361.1 hPa ESE 7.7 km/h 20.8 km/h 63 % 0 mm 587 W/m2
10:25 -3 °C -7.4 °C 34361.1 hPa NE 12.9 km/h 20.8 km/h 62 % 0 mm 599 W/m2
10:30 -2.8 °C -7.5 °C 34361.1 hPa ESE 12.9 km/h 23.3 km/h 60 % 0 mm 613 W/m2
10:35 -2.8 °C -7.2 °C 34361.1 hPa Calm   23.3 km/h 62 % 0 mm 624 W/m2
10:40 -2.7 °C -7.5 °C 34361.1 hPa ESE 5.1 km/h 20.8 km/h 59 % 0 mm 636 W/m2
10:45 -2.7 °C -7.5 °C 34361.1 hPa SSE 7.7 km/h 20.8 km/h 59 % 0 mm 649 W/m2
10:50 -2.4 °C -7.2 °C 34361.1 hPa ESE 12.9 km/h 20.8 km/h 60 % 0 mm 661 W/m2
10:55 -2.3 °C -7.2 °C 34361.1 hPa ESE 7.7 km/h 20.8 km/h 59 % 0 mm 671 W/m2
11:00 -2.1 °C -6.8 °C 34361.1 hPa ESE 10.3 km/h 23.3 km/h 60 % 0 mm 687 W/m2
11:05 -2.1 °C -7.1 °C 34361.1 hPa Calm   23.3 km/h 58 % 0 mm 698 W/m2
11:10 -2 °C -7.2 °C 34361.1 hPa ENE 5.1 km/h 20.8 km/h 57 % 0 mm 708 W/m2
11:15 -1.9 °C -7.2 °C 34361.1 hPa SE 12.9 km/h 20.8 km/h 56 % 0 mm 721 W/m2
11:20 -1.9 °C -7.4 °C 34361.1 hPa SSE 5.1 km/h 20.8 km/h 55 % 0 mm 729 W/m2
11:25 -1.9 °C -7.4 °C 34361.1 hPa SE 2.6 km/h 20.8 km/h 55 % 0 mm 738 W/m2
11:30 -1.6 °C -7.2 °C 34361.1 hPa Calm   20.8 km/h 55 % 0 mm 749 W/m2
11:35 -1.6 °C -7.2 °C 34361.1 hPa ENE 7.7 km/h 18.2 km/h 55 % 0 mm 758 W/m2
11:40 -1.6 °C -7.2 °C 34361.1 hPa East 5.1 km/h 15.6 km/h 54 % 0 mm 766 W/m2
11:45 -1.3 °C -7 °C 34361.1 hPa East 7.7 km/h 18.2 km/h 54 % 0 mm 775 W/m2
11:50 -1.4 °C -6.6 °C 34361.1 hPa NE 2.6 km/h 18.2 km/h 57 % 0 mm 784 W/m2
11:55 -1.3 °C -7.2 °C 34361.1 hPa East 7.7 km/h 20.8 km/h 53 % 0 mm 796 W/m2
12:00 -1.2 °C -7.3 °C 34361.1 hPa Calm   20.8 km/h 52 % 0 mm 805 W/m2
12:05 -0.9 °C -6.5 °C 34361.1 hPa South 7.7 km/h 18.2 km/h 55 % 0 mm 812 W/m2
12:10 -1.1 °C -7.2 °C 34361.1 hPa ESE 10.3 km/h 18.2 km/h 52 % 0 mm 817 W/m2
12:15 -0.9 °C -7.1 °C 34361.1 hPa SSE 10.3 km/h 20.8 km/h 52 % 0 mm 823 W/m2
12:20 -0.9 °C -7 °C 34361.1 hPa South 12.9 km/h 20.8 km/h 52 % 0 mm 828 W/m2
12:25 -0.9 °C -7.3 °C 34361.1 hPa ESE 12.9 km/h 23.3 km/h 50 % 0 mm 837 W/m2
12:30 -0.9 °C -7.1 °C 34361.1 hPa SE 15.6 km/h 23.3 km/h 51 % 0 mm 838 W/m2
12:35 -0.7 °C -6.7 °C 34347.6 hPa NE 5.1 km/h 20.8 km/h 53 % 0 mm 844 W/m2
12:40 -0.6 °C -6.9 °C 34347.6 hPa ESE 5.1 km/h 18.2 km/h 51 % 0 mm 854 W/m2
12:45 -0.6 °C -7.1 °C 34347.6 hPa ENE 12.9 km/h 15.6 km/h 50 % 0 mm 860 W/m2
12:50 -0.4 °C -7.1 °C 34347.6 hPa ESE 7.7 km/h 20.8 km/h 49 % 0 mm 865 W/m2
12:55 -0.4 °C -7.3 °C 34347.6 hPa Calm   20.8 km/h 48 % 0 mm 868 W/m2
13:00 -0.4 °C -6.9 °C 34347.6 hPa ESE 7.7 km/h 18.2 km/h 50 % 0 mm 875 W/m2
13:05 -0.2 °C -6.7 °C 34347.6 hPa ENE 10.3 km/h 23.3 km/h 50 % 0 mm 879 W/m2
13:10 -0.2 °C -6.6 °C 34347.6 hPa South 7.7 km/h 23.3 km/h 51 % 0 mm 881 W/m2
13:15 -0.2 °C -6.9 °C 34347.6 hPa NE 7.7 km/h 18.2 km/h 49 % 0 mm 882 W/m2
13:20 -0.1 °C -6.4 °C 34347.6 hPa Calm   18.2 km/h 51 % 0 mm 888 W/m2
13:25 0.4 °C -6.9 °C 34347.6 hPa ENE 5.1 km/h 12.9 km/h 46 % 0 mm 891 W/m2
13:30 0.2 °C -6.7 °C 34347.6 hPa South 10.3 km/h 18.2 km/h 48 % 0 mm 893 W/m2
13:35 0.1 °C -6.8 °C 34347.6 hPa SSW 2.6 km/h 23.3 km/h 48 % 0 mm 893 W/m2
13:40 -0.2 °C -6.7 °C 34347.6 hPa ENE 10.3 km/h 23.3 km/h 50 % 0 mm 898 W/m2
13:45 0 °C -6.9 °C 34337.4 hPa WSW 7.7 km/h 12.9 km/h 48 % 0 mm 895 W/m2
13:50 -0.2 °C -6.6 °C 34347.6 hPa West 7.7 km/h 12.9 km/h 51 % 0 mm 896 W/m2
13:55 -0.1 °C -6.9 °C 34347.6 hPa WSW 18.2 km/h 18.2 km/h 48 % 0 mm 900 W/m2
14:00 -0.2 °C -6.8 °C 34337.4 hPa SW 7.7 km/h 20.8 km/h 49 % 0 mm 902 W/m2
14:05 -0.2 °C -6.2 °C 34337.4 hPa West 15.6 km/h 20.8 km/h 53 % 0 mm 898 W/m2
14:10 -0.2 °C -6.7 °C 34337.4 hPa WSW 15.6 km/h 20.8 km/h 50 % 0 mm 896 W/m2
14:15 -0.4 °C -6.8 °C 34337.4 hPa WSW 12.9 km/h 20.8 km/h 50 % 0 mm 893 W/m2
14:20 -0.4 °C -6.5 °C 34337.4 hPa West 12.9 km/h 18.2 km/h 52 % 0 mm 888 W/m2
14:25 -0.5 °C -6.9 °C 34337.4 hPa WNW 12.9 km/h 18.2 km/h 50 % 0 mm 884 W/m2
14:30 -0.2 °C -6.7 °C 34337.4 hPa SW 12.9 km/h 18.2 km/h 50 % 0 mm 882 W/m2
14:35 -0.2 °C -6.9 °C 34337.4 hPa WSW 15.6 km/h 18.2 km/h 49 % 0 mm 877 W/m2
14:40 -0.4 °C -6.6 °C 34337.4 hPa WSW 20.8 km/h 23.3 km/h 52 % 0 mm 874 W/m2
14:45 -0.6 °C -7.1 °C 34337.4 hPa West 10.3 km/h 25.9 km/h 50 % 0 mm 870 W/m2
14:50 -1.1 °C -7 °C 34337.4 hPa West 15.6 km/h 28.5 km/h 53 % 0 mm 861 W/m2
14:55 -0.9 °C -7 °C 34347.6 hPa West 25.9 km/h 31.1 km/h 52 % 0 mm 860 W/m2
15:00 -1.7 °C -7.2 °C 34347.6 hPa WNW 15.6 km/h 31.1 km/h 55 % 0 mm 860 W/m2
15:05 -1.7 °C -6.7 °C 34337.4 hPa WNW 10.3 km/h 31.1 km/h 58 % 0 mm 854 W/m2
15:10 -1.4 °C -6.8 °C 34337.4 hPa West 15.6 km/h 25.9 km/h 56 % 0 mm 854 W/m2
15:15 -1.3 °C -7.2 °C 34347.6 hPa WNW 15.6 km/h 23.3 km/h 53 % 0 mm 853 W/m2
15:20 -1.1 °C -6.8 °C 34347.6 hPa West 15.6 km/h 31.1 km/h 54 % 0 mm 847 W/m2
15:25 -2.1 °C -7.6 °C 34337.4 hPa WSW 10.3 km/h 31.1 km/h 55 % 0 mm 842 W/m2
15:30 -2.1 °C -7.1 °C 34337.4 hPa WNW 10.3 km/h 25.9 km/h 58 % 0 mm 831 W/m2
15:35 -1.8 °C -7.1 °C 34337.4 hPa SW 7.7 km/h 25.9 km/h 56 % 0 mm 831 W/m2
15:40 -1.9 °C -7.3 °C 34337.4 hPa West 5.1 km/h 23.3 km/h 56 % 0 mm 826 W/m2
15:45 -1.9 °C -7.4 °C 34337.4 hPa West 12.9 km/h 25.9 km/h 55 % 0 mm 817 W/m2
15:50 -1.9 °C -7.3 °C 34337.4 hPa West 18.2 km/h 28.5 km/h 56 % 0 mm 814 W/m2
15:55 -2.2 °C -6.9 °C 34337.4 hPa WNW 12.9 km/h 28.5 km/h 60 % 0 mm 805 W/m2
16:00 -1.8 °C -6.9 °C 34337.4 hPa WNW 12.9 km/h 23.3 km/h 57 % 0 mm 784 W/m2
16:05 -1.8 °C -6.8 °C 34337.4 hPa West 7.7 km/h 23.3 km/h 58 % 0 mm 789 W/m2
16:10 -1.6 °C -7.2 °C 34337.4 hPa WNW 5.1 km/h 23.3 km/h 55 % 0 mm 779 W/m2
16:15 -1.8 °C -7.2 °C 34337.4 hPa WSW 7.7 km/h 18.2 km/h 56 % 0 mm 773 W/m2
16:20 -1.7 °C -7.4 °C 34337.4 hPa West 18.2 km/h 23.3 km/h 54 % 0 mm 761 W/m2
16:25 -2.1 °C -7.1 °C 34337.4 hPa WSW 7.7 km/h 25.9 km/h 58 % 0 mm 752 W/m2
16:30 -1.8 °C -7.2 °C 34327.3 hPa WSW 5.1 km/h 25.9 km/h 56 % 0 mm 745 W/m2
16:35 -1.8 °C -7 °C 34327.3 hPa West 12.9 km/h 23.3 km/h 57 % 0 mm 738 W/m2
16:40 -1.5 °C -7.2 °C 34327.3 hPa WSW 15.6 km/h 23.3 km/h 54 % 0 mm 728 W/m2
16:45 -1.7 °C -6.9 °C 34337.4 hPa WSW 12.9 km/h 25.9 km/h 57 % 0 mm 719 W/m2
16:50 -1.9 °C -7.1 °C 34337.4 hPa WNW 2.6 km/h 25.9 km/h 57 % 0 mm 708 W/m2
16:55 -2.2 °C -7.4 °C 34337.4 hPa West 12.9 km/h 25.9 km/h 57 % 0 mm 698 W/m2
17:00 -2.4 °C -7.2 °C 34327.3 hPa WSW 15.6 km/h 25.9 km/h 59 % 0 mm 689 W/m2
17:05 -2.4 °C -7.3 °C 34327.3 hPa West 12.9 km/h 23.3 km/h 59 % 0 mm 679 W/m2
17:10 -2.3 °C -7.1 °C 34327.3 hPa West 7.7 km/h 20.8 km/h 59 % 0 mm 664 W/m2
17:15 -2.2 °C -7.4 °C 34327.3 hPa West 5.1 km/h 20.8 km/h 57 % 0 mm 649 W/m2
17:20 -2 °C -7.2 °C 34327.3 hPa West 18.2 km/h 20.8 km/h 57 % 0 mm 642 W/m2
17:25 -2.1 °C -7.2 °C 34327.3 hPa WSW 10.3 km/h 20.8 km/h 57 % 0 mm 635 W/m2
17:30 -1.8 °C -7.3 °C 34327.3 hPa West 10.3 km/h 20.8 km/h 55 % 0 mm 621 W/m2
17:35 -2.1 °C -7.1 °C 34327.3 hPa WSW 7.7 km/h 20.8 km/h 58 % 0 mm 613 W/m2
17:40 -2.4 °C -7.3 °C 34327.3 hPa WSW 10.3 km/h 28.5 km/h 59 % 0 mm 599 W/m2
17:45 -2.6 °C -7.4 °C 34313.7 hPa West 12.9 km/h 28.5 km/h 59 % 0 mm 585 W/m2
17:50 -2.6 °C -7 °C 34313.7 hPa West 10.3 km/h 28.5 km/h 62 % 0 mm 577 W/m2
17:55 -2.7 °C -7.4 °C 34313.7 hPa WSW 7.7 km/h 31.1 km/h 60 % 0 mm 564 W/m2
18:00 -2.7 °C -7.3 °C 34313.7 hPa West 12.9 km/h 31.1 km/h 61 % 0 mm 554 W/m2
18:05 -2.6 °C -7.3 °C 34313.7 hPa West 2.6 km/h 23.3 km/h 60 % 0 mm 536 W/m2
18:10 -2.6 °C -7.4 °C 34313.7 hPa WSW 12.9 km/h 23.3 km/h 59 % 0 mm 524 W/m2
18:15 -2.7 °C -7.6 °C 34313.7 hPa West 15.6 km/h 33.6 km/h 59 % 0 mm 508 W/m2
18:20 -2.9 °C -7.4 °C 34313.7 hPa SW 7.7 km/h 33.6 km/h 61 % 0 mm 494 W/m2
18:25 -2.9 °C -7.4 °C 34313.7 hPa West 5.1 km/h 31.1 km/h 61 % 0 mm 482 W/m2
18:30 -2.7 °C -7.2 °C 34313.7 hPa West 10.3 km/h 31.1 km/h 62 % 0 mm 468 W/m2
18:35 -2.8 °C -7.3 °C 34313.7 hPa WSW 20.8 km/h 25.9 km/h 61 % 0 mm 455 W/m2
18:40 -2.8 °C -6.9 °C 34313.7 hPa NW 15.6 km/h 25.9 km/h 64 % 0 mm 443 W/m2
18:45 -2.9 °C -7.3 °C 34313.7 hPa West 18.2 km/h 28.5 km/h 62 % 0 mm 431 W/m2
18:50 -2.9 °C -7.3 °C 34313.7 hPa West 18.2 km/h 28.5 km/h 62 % 0 mm 415 W/m2
18:55 -2.9 °C -7.3 °C 34313.7 hPa WSW 15.6 km/h 23.3 km/h 62 % 0 mm 399 W/m2
19:00 -3 °C -7.3 °C 34313.7 hPa WSW 10.3 km/h 23.3 km/h 63 % 0 mm 385 W/m2
19:05 -2.8 °C -7.1 °C 34313.7 hPa WSW 2.6 km/h 20.8 km/h 63 % 0 mm 369 W/m2
19:10 -2.9 °C -7.2 °C 34313.7 hPa WSW 12.9 km/h 20.8 km/h 63 % 0 mm 355 W/m2
19:15 -2.7 °C -7 °C 34313.7 hPa West 12.9 km/h 20.8 km/h 63 % 0 mm 343 W/m2
19:20 -2.6 °C -6.8 °C 34313.7 hPa WSW 7.7 km/h 20.8 km/h 63 % 0 mm 329 W/m2
19:25 -2.6 °C -7.2 °C 34313.7 hPa West 2.6 km/h 18.2 km/h 61 % 0 mm 313 W/m2
19:30 -2.7 °C -7.2 °C 34313.7 hPa West 15.6 km/h 20.8 km/h 61 % 0 mm 299 W/m2
19:35 -2.7 °C -7 °C 34313.7 hPa SW 12.9 km/h 20.8 km/h 63 % 0 mm 278 W/m2
19:40 -2.9 °C -7 °C 34313.7 hPa West 12.9 km/h 20.8 km/h 64 % 0 mm 258 W/m2
19:45 -2.9 °C -6.8 °C 34313.7 hPa WSW 5.1 km/h 20.8 km/h 66 % 0 mm 232 W/m2
19:50 -2.8 °C -7.1 °C 34313.7 hPa West 5.1 km/h 15.6 km/h 63 % 0 mm 211 W/m2
19:55 -2.8 °C -6.9 °C 34313.7 hPa WSW 10.3 km/h 15.6 km/h 64 % 0 mm 193 W/m2
20:00 -2.9 °C -7 °C 34313.7 hPa WSW 10.3 km/h 18.2 km/h 64 % 0 mm 185 W/m2
20:10 -3.1 °C -6.9 °C 34313.7 hPa WSW 2.6 km/h 12.9 km/h 66 % 0 mm 171 W/m2
20:15 -3.1 °C -6.9 °C 34313.7 hPa SW 7.7 km/h 12.9 km/h 66 % 0 mm 156 W/m2
20:20 -3.2 °C -7 °C 34313.7 hPa Calm   15.6 km/h 66 % 0 mm 135 W/m2
20:25 -3.2 °C -6.9 °C 34313.7 hPa SW 10.3 km/h 15.6 km/h 67 % 0 mm 120 W/m2
20:30 -3.2 °C -6.9 °C 34313.7 hPa SW 5.1 km/h 12.9 km/h 67 % 0 mm 109 W/m2
20:35 -3.4 °C -6.9 °C 34313.7 hPa SW 2.6 km/h 12.9 km/h 68 % 0 mm 93 W/m2
20:45 -3.7 °C -6.9 °C 34313.7 hPa SW 5.1 km/h 7.7 km/h 70 % 0 mm 44 W/m2
20:50 -3.7 °C -6.9 °C 34313.7 hPa SW 2.6 km/h 7.7 km/h 70 % 0 mm 42 W/m2
20:55 -3.7 °C -6.9 °C 34313.7 hPa SW 2.6 km/h 7.7 km/h 70 % 0 mm 46 W/m2
21:00 -3.7 °C -6.8 °C 34313.7 hPa SW 5.1 km/h 10.3 km/h 71 % 0 mm 37 W/m2
21:05 -3.7 °C -6.9 °C 34313.7 hPa SW 2.6 km/h 10.3 km/h 70 % 0 mm 33 W/m2
21:10 -3.7 °C -6.8 °C 34313.7 hPa SW 2.6 km/h 7.7 km/h 71 % 0 mm 30 W/m2
21:15 -3.8 °C -6.9 °C 34313.7 hPa Calm   5.1 km/h 71 % 0 mm 28 W/m2
21:20 -4 °C -6.8 °C 34313.7 hPa SW 2.6 km/h 5.1 km/h 73 % 0 mm 25 W/m2
21:25 -4.1 °C -6.8 °C 34313.7 hPa Calm   2.6 km/h 74 % 0 mm 23 W/m2
21:30 -4.1 °C -6.8 °C 34313.7 hPa SW 2.6 km/h 5.1 km/h 75 % 0 mm 21 W/m2
21:35 -4.3 °C -6.9 °C 34313.7 hPa Calm   5.1 km/h 75 % 0 mm 19 W/m2
21:40 -4.4 °C -6.9 °C 34313.7 hPa Calm   5.1 km/h 76 % 0 mm 16 W/m2
21:45 -4.6 °C -6.9 °C 34313.7 hPa Calm   2.6 km/h 77 % 0 mm 12 W/m2
21:50 -4.7 °C -6.9 °C 34313.7 hPa Calm   2.6 km/h 79 % 0 mm 9 W/m2
21:55 -4.9 °C -6.9 °C 34327.3 hPa Calm   2.6 km/h 80 % 0 mm 7 W/m2
22:00 -5 °C -6.9 °C 34327.3 hPa Calm   2.6 km/h 81 % 0 mm 5 W/m2
22:05 -5.1 °C -7.1 °C 34327.3 hPa SW 2.6 km/h 2.6 km/h 80 % 0 mm 0 W/m2
22:10 -5 °C -7 °C 34327.3 hPa Calm   5.1 km/h 80 % 0 mm 0 W/m2
22:15 -4.9 °C -7.1 °C 34327.3 hPa Calm   5.1 km/h 79 % 0 mm 0 W/m2
22:25 -5.2 °C -7.2 °C 34327.3 hPa Calm   2.6 km/h 81 % 0 mm 0 W/m2
22:30 -5.4 °C -7.2 °C 34337.4 hPa Calm   2.6 km/h 82 % 0 mm 0 W/m2
22:35 -5.6 °C -7.1 °C 34337.4 hPa Calm     84 % 0 mm 0 W/m2
22:40 -5.7 °C -7.2 °C 34337.4 hPa Calm     84 % 0 mm 0 W/m2
22:45 -5.8 °C -7.2 °C 34337.4 hPa Calm     85 % 0 mm 0 W/m2
22:50 -5.8 °C -7.3 °C 34337.4 hPa Calm     85 % 0 mm 0 W/m2
22:55 -5.9 °C -7.2 °C 34337.4 hPa Calm     86 % 0 mm 0 W/m2
23:00 -5.8 °C -7.2 °C 34337.4 hPa Calm     86 % 0 mm 0 W/m2
23:05 -5.8 °C -7.3 °C 34347.6 hPa Calm     85 % 0 mm 0 W/m2
23:10 -6 °C -7.3 °C 34347.6 hPa Calm   2.6 km/h 87 % 0 mm 0 W/m2
23:15 -6.1 °C -7.3 °C 34347.6 hPa Calm   2.6 km/h 87 % 0 mm 0 W/m2
23:20 -6.1 °C -7.2 °C 34347.6 hPa SW 10.3 km/h 10.3 km/h 88 % 0 mm 0 W/m2
23:30 -5.8 °C -7.2 °C 34347.6 hPa Calm   10.3 km/h 86 % 0 mm 0 W/m2
23:35 -5.9 °C -7.2 °C 34347.6 hPa Calm   2.6 km/h 86 % 0 mm 0 W/m2
23:40 -6.1 °C -7.4 °C 34347.6 hPa Calm     86 % 0 mm 0 W/m2
23:45 -6.2 °C -7.3 °C 34347.6 hPa Calm     88 % 0 mm 0 W/m2
23:50 -6.2 °C -7.4 °C 34347.6 hPa Calm     88 % 0 mm 0 W/m2
23:55 -6.2 °C -7.3 °C 34337.4 hPa Calm     88 % 0 mm 0 W/m2
Avec l'autorisation de Weather Underground - 1.75 mb